Vorticity
nan nan nan nan nan nan nan nan nan nan nan nan nan nan nan nan nan nan nan nan nan nan nan nan nan nan nan nan nan nan nan nan nan nan nan nan nan nan nan nan nan nan nan nan nan nan nan nan nan nan nan nan nan nan nan nan nan nan nan nan nan nan nan nan nan nan nan nan nan nan nan nan nan nan nan nan nan nan nan nan nan nan nan nan nan nan
nan 8 7 8 9 9 8 7 9 9 8 7 6 6 6 7 9 10 13 14 13 12 11 10 9 9 8 8 5 5 7 7 8 9 10 11 11 11 11 10 10 9 8 8 8 9 9 9 9 10 10 10 10 10 10 10 10 10 10 10 10 10 10 10 10 10 10 10 10 10 10 10 10 11 11 11 11 11 12 12 12 12 12 11 12 nan
nan 9 8 9 10 9 8 9 10 9 7 6 6 5 6 8 10 11 12 14 14 13 10 8 7 8 10 9 7 8 7 8 9 9 10 10 10 10 9 9 8 8 8 8 8 9 9 10 10 10 10 10 10 10 10 10 10 10 10 10 10 10 10 10 10 10 10 11 11 11 11 11 11 11 11 12 12 12 13 13 13 13 13 13 13 nan
nan 8 8 10 10 9 8 8 8 8 7 7 8 9 10 13 13 13 11 11 11 11 9 8 8 10 12 12 9 7 5 7 8 9 10 10 9 9 8 8 8 8 8 9 9 9 10 10 10 10 10 10 10 10 10 10 10 10 11 11 11 11 11 11 11 11 11 11 12 12 12 12 12 11 11 11 12 12 12 12 12 12 13 12 12 nan
nan 8 9 10 10 9 9 8 8 8 9 11 12 13 15 15 14 13 11 10 9 9 9 11 12 11 10 9 5 2 4 7 9 10 10 10 9 8 8 8 8 8 9 9 10 10 10 10 10 10 10 11 11 11 11 11 11 11 12 12 12 12 12 12 12 12 12 12 12 12 12 12 11 11 11 11 11 11 12 12 12 12 12 12 11 nan
nan 9 11 11 10 9 9 10 9 10 12 13 13 14 15 14 12 10 9 10 10 10 11 12 12 11 9 5 2 3 8 11 12 12 12 10 10 9 9 9 9 9 10 10 10 10 11 11 11 11 11 11 11 11 11 12 12 12 12 12 12 12 12 12 12 12 12 12 12 12 11 11 11 11 12 12 12 12 12 12 12 12 12 12 12 nan
nan 10 10 9 8 8 8 8 9 11 11 11 12 13 13 11 9 9 8 9 10 11 12 11 11 11 11 8 7 11 15 17 18 18 16 15 14 13 12 11 10 10 10 10 11 11 11 11 11 11 11 11 11 11 11 12 11 11 12 12 12 12 12 11 11 12 12 11 11 11 11 11 11 12 12 12 12 12 12 12 12 12 12 12 12 nan
nan 8 8 7 7 8 8 8 9 9 9 9 10 11 10 8 9 10 10 10 11 12 11 11 10 11 11 12 13 15 16 17 18 18 17 20 20 18 15 13 12 12 12 11 11 11 11 11 11 11 11 11 11 11 11 11 11 11 11 11 11 11 11 11 11 11 11 11 11 11 11 12 12 12 12 12 12 12 12 12 11 11 11 11 11 nan
nan 7 8 8 7 7 8 9 9 10 10 10 9 9 8 8 10 11 10 11 11 11 10 10 9 10 11 12 12 12 10 10 8 5 7 11 10 8 9 12 14 15 12 12 11 10 10 11 11 11 11 11 10 10 10 10 10 11 11 11 11 11 11 11 11 11 11 11 11 11 12 12 12 11 11 11 11 11 11 11 11 10 10 10 10 nan
nan 9 9 9 9 9 9 9 11 12 11 10 9 8 8 9 11 10 8 9 9 9 9 9 10 11 11 11 10 8 8 8 5 4 5 3 0 2 7 11 13 11 10 11 11 11 11 11 11 11 11 11 10 10 11 11 11 11 11 11 11 11 11 11 11 11 11 11 11 11 11 11 11 10 10 10 10 10 10 10 11 10 10 10 10 nan
nan 12 11 11 12 12 12 11 11 11 11 10 10 9 8 9 10 8 7 9 8 8 9 10 11 11 10 10 9 8 10 12 14 15 17 15 15 17 19 18 15 12 14 15 15 15 14 13 12 12 12 12 12 12 12 12 12 11 11 11 11 11 11 11 11 11 11 11 11 10 10 10 10 10 10 10 10 10 10 11 11 10 10 10 10 nan
nan 13 14 13 12 12 12 12 10 9 8 9 8 8 9 10 10 8 9 9 9 10 10 11 10 9 8 8 8 10 11 12 14 17 20 23 26 28 27 24 21 20 22 23 23 21 17 15 15 15 14 14 13 12 12 12 11 10 10 11 11 11 11 11 11 10 10 9 9 9 9 9 9 10 10 10 10 11 11 11 11 11 11 11 11 nan
nan 10 9 9 10 10 10 8 7 6 6 7 7 9 10 11 10 9 9 8 9 11 11 9 8 8 9 8 9 10 11 12 12 13 14 17 19 20 19 17 16 17 20 21 22 19 15 18 20 20 17 15 14 13 14 13 11 10 10 10 10 10 10 10 9 9 8 9 9 9 9 9 10 10 10 10 11 11 11 11 11 11 11 11 11 nan
nan 8 7 8 10 10 7 5 4 5 8 9 10 11 10 9 9 8 7 9 10 10 9 7 7 8 10 11 11 10 9 11 13 13 12 12 11 10 9 8 8 10 12 13 12 10 12 19 23 22 20 19 17 17 15 11 9 9 9 9 9 9 9 9 9 8 8 9 10 10 10 10 10 10 11 11 11 11 11 11 11 11 11 11 11 nan
nan 10 10 10 10 8 5 5 7 9 9 10 10 10 9 8 8 8 8 9 10 10 9 9 9 10 11 12 12 10 10 11 12 11 10 9 8 7 5 7 8 8 9 9 9 8 14 19 19 17 18 15 11 7 4 5 6 7 8 8 8 9 9 9 9 9 10 10 11 11 11 11 11 11 11 11 11 11 11 11 11 12 12 12 12 nan
nan 13 12 10 8 5 5 7 8 9 10 11 10 8 8 9 10 10 10 11 11 11 10 11 13 14 14 12 11 10 12 12 11 8 7 7 6 5 6 9 9 9 9 9 10 11 16 15 13 11 10 5 1 -1 1 4 5 7 7 8 9 9 10 10 10 11 11 11 11 11 11 11 11 11 11 11 11 11 11 12 12 12 12 13 13 nan
nan 13 11 7 6 5 7 9 9 10 11 10 10 9 10 10 10 10 10 11 10 10 9 9 11 14 13 12 12 12 13 11 9 6 6 6 6 6 9 10 9 9 9 10 10 11 11 11 11 10 5 -2 -2 1 5 6 7 8 8 9 10 10 10 10 10 10 10 11 11 11 11 11 12 12 12 12 12 12 12 12 12 12 13 13 13 nan
nan 10 7 5 5 7 9 11 11 11 10 10 10 10 10 9 9 9 8 8 7 7 7 8 10 9 8 8 9 9 9 8 7 6 7 8 8 9 11 10 10 9 10 10 10 10 10 10 7 2 -8 -8 -2 3 5 7 8 9 9 10 10 10 10 10 10 10 10 11 11 12 12 12 12 12 12 12 12 12 12 12 12 12 12 12 12 nan
nan 6 5 6 8 9 10 11 10 9 8 9 9 8 8 8 8 7 8 8 9 9 10 9 9 9 9 7 5 4 5 6 7 8 9 10 10 11 12 11 10 11 11 11 11 11 11 10 6 0 -5 1 5 7 8 9 9 9 9 9 9 9 9 10 10 10 11 11 12 12 12 12 12 11 12 12 12 12 12 12 12 12 12 11 11 nan
nan 5 4 7 10 11 12 10 7 6 6 7 8 8 8 8 8 9 10 10 11 12 12 12 11 11 11 7 4 1 3 7 10 12 13 13 12 13 13 12 11 11 11 11 11 11 11 10 10 10 11 10 8 8 8 8 8 8 8 8 9 9 10 10 11 11 11 12 12 12 12 12 12 12 12 12 12 12 12 12 12 12 12 12 12 nan
nan 6 6 8 9 10 9 7 4 4 6 9 11 10 9 9 9 10 10 11 12 13 13 12 11 9 5 2 2 3 7 11 14 15 16 14 12 12 12 12 11 11 10 11 11 11 10 10 11 11 9 4 4 5 6 7 7 8 8 9 10 10 11 11 12 12 12 12 12 12 12 12 12 12 12 12 12 12 12 12 12 13 13 13 12 nan
nan 8 7 7 8 8 7 6 7 9 12 12 10 9 12 11 11 11 12 14 14 13 11 8 5 4 3 5 7 8 11 13 13 14 13 10 9 10 11 11 10 10 10 11 11 11 10 10 9 6 1 -0 2 5 7 8 8 9 10 10 11 11 12 12 12 13 13 13 13 13 12 12 12 12 12 12 12 12 12 12 12 12 13 13 12 nan
nan 8 8 11 12 12 11 11 12 14 15 13 11 11 12 13 14 15 16 15 12 9 7 5 5 6 9 10 10 12 13 13 13 13 10 9 9 10 10 9 9 9 10 11 10 9 9 10 9 7 6 5 7 8 8 9 9 10 10 11 12 12 13 13 13 13 12 12 11 11 11 11 11 11 11 11 11 11 12 12 12 12 12 12 12 nan
nan 10 13 14 11 8 6 5 6 7 10 11 13 14 12 11 11 11 9 7 6 6 7 7 9 11 12 11 12 14 15 14 14 13 11 11 10 10 9 9 9 9 10 10 8 8 10 11 10 11 10 9 10 9 10 10 10 11 12 12 13 13 13 12 12 11 11 10 10 10 10 10 11 11 11 11 12 12 12 12 12 12 12 11 11 nan
nan 6 5 0 -5 -10 -12 -11 -9 -6 -2 5 9 11 9 7 6 7 5 6 8 9 9 10 11 12 11 13 15 16 15 13 12 11 10 11 10 10 9 10 10 10 10 10 9 10 10 10 10 10 9 10 10 11 11 12 12 12 12 12 12 12 11 10 10 10 10 10 10 10 11 11 11 12 12 12 12 12 12 12 12 12 12 12 12 nan
nan -8 -12 -15 -15 -13 -10 -7 -6 -6 -3 3 4 4 5 8 10 11 10 11 11 11 11 12 12 12 11 12 13 13 11 11 11 11 10 9 9 11 10 10 9 9 10 10 10 9 8 8 9 9 9 11 13 15 13 13 13 13 12 11 10 10 10 10 10 10 11 11 11 11 12 12 12 12 12 12 12 12 12 12 12 12 12 15 19 nan
nan -4 -4 -2 3 7 11 11 10 8 9 7 3 3 8 13 13 12 11 12 11 11 11 10 10 11 11 10 10 9 7 10 11 12 11 9 10 11 10 9 8 9 11 11 10 8 7 10 11 11 11 12 15 15 14 13 13 12 12 10 9 9 10 11 11 11 12 12 12 12 12 12 12 12 12 12 12 12 11 11 11 13 16 25 33 nan
nan 13 15 16 17 17 17 17 17 15 14 10 8 13 20 20 15 12 11 10 10 10 9 9 10 11 10 9 9 7 7 10 12 13 12 11 11 10 9 8 9 10 13 13 12 11 14 15 15 15 14 12 12 13 15 14 15 16 16 13 12 12 12 12 12 12 12 12 12 12 12 11 11 11 11 11 11 11 10 10 12 18 28 35 36 nan
nan 24 23 21 20 19 20 21 19 16 13 13 16 22 25 21 15 11 10 10 10 10 9 9 9 9 8 9 9 9 12 14 14 14 13 12 11 10 8 7 9 10 14 14 15 17 19 18 17 15 12 10 10 12 13 16 20 22 21 18 18 18 15 14 13 12 12 12 12 12 11 11 11 11 11 11 11 11 10 9 16 26 36 32 25 nan
nan 24 23 21 21 21 23 22 18 16 15 17 20 24 25 19 13 11 10 10 10 10 10 10 10 9 8 10 12 15 17 15 13 11 11 11 10 8 6 8 9 11 13 14 15 16 16 15 13 11 9 9 10 11 11 14 18 20 20 21 23 21 16 14 13 13 13 13 13 12 12 12 11 11 11 11 10 10 9 11 19 27 29 22 17 nan
nan 16 16 17 17 18 18 17 16 17 19 22 24 26 22 16 12 11 11 11 11 11 10 10 9 9 9 10 11 13 13 10 7 5 8 11 10 7 7 10 10 10 11 10 9 9 12 13 11 9 7 9 11 11 9 10 12 14 14 17 19 16 13 14 15 17 18 16 15 13 13 12 12 11 11 11 11 10 10 12 17 22 19 15 13 nan
nan 11 12 12 13 13 13 14 15 16 18 21 22 21 17 13 11 10 11 11 11 11 10 10 10 9 10 8 6 6 5 3 0 1 6 11 11 9 9 9 9 10 9 8 6 6 8 8 7 7 8 10 12 11 10 11 11 11 10 12 13 11 11 16 20 22 21 19 18 17 16 15 14 14 13 12 12 12 11 13 15 16 12 12 12 nan
nan 11 11 11 11 12 12 12 12 12 13 14 14 14 14 14 12 11 10 10 10 10 10 10 10 10 10 9 8 6 3 1 -1 1 8 13 11 10 8 7 8 8 9 10 9 9 7 2 3 6 10 12 11 11 11 12 11 11 12 12 12 10 13 19 21 21 19 19 21 22 21 22 21 19 17 16 16 15 14 14 13 10 4 7 8 nan
nan 11 11 12 12 12 11 10 10 10 10 10 10 11 13 13 13 13 11 10 10 10 10 10 10 10 10 11 10 8 6 4 2 4 10 13 10 8 6 7 8 9 10 11 11 12 9 3 2 4 9 10 10 11 12 12 13 14 14 11 10 10 13 16 17 16 14 17 19 20 23 26 26 24 23 21 19 16 13 12 10 6 1 -0 -0 nan
nan 12 12 12 11 11 10 10 11 11 10 11 11 12 11 11 12 12 12 11 10 9 9 9 9 9 9 9 8 7 7 5 4 5 9 11 9 8 9 10 9 9 9 9 10 11 9 7 5 5 5 7 11 13 12 12 13 14 11 9 9 8 10 11 12 12 13 14 14 15 17 19 21 21 21 16 12 9 8 8 8 7 7 1 -2 nan
nan 11 11 11 11 10 10 10 11 12 12 12 12 12 11 10 10 10 11 10 10 9 8 8 7 7 6 6 6 5 5 5 5 7 9 10 8 7 8 9 7 7 8 9 8 8 6 7 8 8 7 9 11 12 11 11 11 10 9 10 10 9 9 9 10 10 12 11 11 11 12 11 12 13 12 7 7 8 10 10 12 13 13 10 7 nan
nan 10 10 11 10 10 11 12 12 12 12 12 11 10 9 9 9 9 10 10 9 9 10 10 10 8 3 2 2 2 3 1 2 5 7 9 8 8 6 6 7 8 9 9 8 7 7 8 9 11 13 12 9 6 4 7 8 9 9 9 10 10 10 11 11 11 11 10 10 8 7 8 9 10 8 12 18 22 24 26 26 24 20 20 16 nan
nan 10 10 10 10 10 11 11 11 11 11 10 9 9 9 9 8 9 10 10 10 10 10 11 12 12 9 6 3 1 1 0 2 5 9 10 10 8 6 6 8 10 10 8 8 8 8 8 9 12 14 12 7 3 3 6 7 8 9 9 10 11 12 12 12 12 10 10 9 8 8 10 11 11 12 19 24 27 29 31 29 26 26 29 26 nan
nan 10 10 9 10 10 10 10 10 9 9 9 8 8 9 10 11 12 12 12 12 11 10 9 10 12 16 15 13 10 8 11 13 14 16 15 13 10 8 7 9 10 10 10 9 9 8 8 8 7 7 8 8 9 10 9 7 6 7 12 15 16 13 11 11 11 11 11 11 12 13 14 13 12 12 15 15 15 16 18 19 20 24 26 26 nan
nan 10 9 9 10 10 9 9 9 9 8 9 9 11 13 14 14 15 14 13 13 13 14 13 12 13 15 16 17 17 16 16 15 15 18 15 11 9 9 8 9 10 11 12 11 10 9 7 7 6 6 6 6 7 8 7 4 2 4 11 12 11 9 8 9 11 12 11 12 13 12 11 9 9 10 9 10 11 12 11 12 13 15 15 17 nan
nan 10 10 11 11 10 10 10 9 8 8 10 12 14 13 13 13 13 13 13 14 14 15 16 15 14 14 15 15 16 17 15 15 14 13 10 8 7 8 9 9 10 11 11 10 10 9 7 8 9 9 7 6 7 7 5 3 3 8 10 6 4 6 9 13 14 12 11 11 10 7 7 9 10 10 10 12 13 12 9 7 7 9 11 11 nan
nan 11 11 10 10 11 10 9 9 10 12 13 12 12 11 11 11 10 9 11 11 11 11 12 12 11 12 13 14 16 18 18 17 15 13 13 12 10 8 8 8 8 10 11 11 10 9 9 9 10 9 9 9 10 9 8 9 11 12 9 7 9 17 20 18 15 11 10 10 9 9 11 12 13 12 13 14 14 14 10 6 4 6 9 10 nan
nan 11 10 10 10 10 9 10 12 13 14 12 11 10 10 10 8 8 9 10 10 9 10 11 11 10 10 9 11 14 17 18 17 15 15 15 14 13 11 8 7 7 8 10 11 12 12 11 11 10 9 10 9 8 7 9 11 12 12 9 10 13 16 15 12 9 9 10 11 11 13 13 13 13 13 14 14 14 14 13 13 14 11 10 11 nan
nan 11 11 11 11 11 11 12 12 12 11 10 10 10 10 9 8 9 12 11 10 10 11 12 12 13 11 10 10 11 13 15 16 18 17 14 12 9 10 12 11 10 8 8 9 10 13 14 13 11 11 11 10 9 9 8 9 11 11 11 11 10 4 1 2 4 9 11 12 11 11 11 12 12 13 13 13 12 11 13 15 17 16 14 13 nan
nan 11 10 11 10 10 9 10 10 10 10 10 10 10 10 10 12 13 12 10 10 11 11 11 12 12 11 11 11 11 11 11 13 16 18 17 16 15 15 15 15 15 13 11 8 7 8 10 10 10 11 11 11 9 8 8 9 10 10 11 12 12 7 3 4 7 9 10 10 10 10 11 12 12 12 12 10 9 7 9 10 12 14 14 13 nan
nan 9 10 10 10 9 9 10 11 11 10 10 10 11 11 12 13 12 10 10 10 11 11 11 11 9 7 7 9 10 10 8 9 11 13 16 19 21 18 16 14 13 13 12 11 9 7 6 6 7 9 12 12 11 10 9 9 10 11 12 12 13 12 11 12 11 11 11 11 10 11 12 12 10 9 8 8 9 10 11 12 12 13 14 13 nan
nan 9 10 10 10 10 11 11 11 11 10 10 11 11 11 11 10 10 11 11 12 11 11 11 10 8 7 7 8 8 7 7 8 9 9 10 13 14 15 17 16 14 12 10 10 10 9 7 6 5 7 9 11 12 12 11 10 10 10 11 12 12 12 13 13 13 13 11 9 9 12 13 11 9 9 9 10 11 11 12 14 15 15 14 13 nan
nan 10 10 10 10 10 11 11 11 10 10 10 10 10 10 8 7 8 12 12 12 11 12 11 10 10 10 10 9 8 7 7 8 9 9 10 11 12 14 15 16 16 14 12 12 13 14 13 11 9 8 8 8 9 10 11 12 11 11 11 12 12 12 11 11 12 11 9 8 9 12 10 10 10 12 11 11 10 9 11 14 16 16 14 12 nan
nan 10 10 10 11 10 10 10 10 10 10 9 10 11 10 8 10 14 14 13 12 12 12 10 10 10 10 10 9 9 9 11 11 10 10 11 12 12 13 12 12 12 14 16 19 20 20 23 23 19 13 8 7 7 9 11 12 12 12 12 13 12 12 11 10 10 10 9 10 11 8 8 9 11 12 11 9 8 9 12 14 15 15 14 12 nan
nan 10 11 11 11 10 10 10 9 10 9 9 10 11 10 12 14 15 13 12 12 11 10 10 10 9 9 9 9 9 11 12 11 10 10 11 11 11 10 9 9 10 13 16 17 17 20 25 28 28 21 11 6 6 11 12 13 13 13 13 13 12 11 10 10 9 8 9 11 11 10 11 12 12 12 11 10 10 12 13 13 12 12 12 12 nan
nan nan nan nan nan nan nan nan nan nan nan nan nan nan nan nan nan nan nan nan nan nan nan nan nan nan nan nan nan nan nan nan nan nan nan nan nan nan nan nan nan nan nan nan nan nan nan nan nan nan nan nan nan nan nan nan nan nan nan nan nan nan nan nan nan nan nan nan nan nan nan nan nan nan nan nan nan nan nan nan nan nan nan nan nan nan
CAPE
nan nan nan nan nan nan nan nan nan nan nan nan nan nan nan nan nan nan nan nan nan nan nan nan nan nan nan 25 50 50 65 67 71 71 71 73 73 73 78 80 80 81 81 80 80 79 79 79 79 80 82 86 85 85 86 88 88 96 100 107 107 118 131 142 142 158 174 189 195 195 205 220 224 224 230 232 233 233 247 250 250 250 259 260 260 265
nan nan nan nan nan nan nan nan nan nan nan nan nan nan nan nan nan nan nan nan nan nan nan nan nan nan nan 3 49 49 60 66 62 62 63 65 67 67 72 72 72 76 72 72 72 68 72 70 70 75 79 79 79 79 84 86 86 86 92 99 99 106 119 132 132 147 164 173 183 183 189 194 199 199 206 214 221 221 233 239 239 246 247 254 254 255
nan nan nan nan nan nan nan nan nan nan nan nan nan nan nan nan nan nan nan nan nan nan nan nan nan nan nan 0 44 44 49 54 55 55 56 59 61 61 65 65 65 65 63 62 62 59 63 66 66 72 73 77 80 80 81 82 82 86 86 89 89 99 110 125 125 141 147 158 168 168 174 177 179 179 195 213 224 224 229 236 236 239 244 254 254 269
nan nan nan nan nan nan nan nan nan nan nan nan nan nan nan nan nan nan nan nan nan nan nan nan nan nan nan nan 14 14 40 46 50 50 50 52 56 56 55 54 54 52 51 48 48 51 58 64 64 70 75 77 78 78 82 86 86 87 86 89 89 95 107 111 111 127 134 140 150 150 156 163 172 172 184 204 212 212 227 229 229 222 226 244 244 268
nan nan nan nan nan nan nan nan nan nan nan nan nan nan nan nan nan nan nan nan nan nan nan nan nan nan nan nan nan nan 31 41 44 44 46 46 44 44 44 43 43 42 42 46 46 52 60 69 69 72 78 81 84 84 84 85 85 84 86 88 88 92 101 107 107 114 119 125 131 131 135 143 150 150 162 177 192 192 202 197 197 198 193 218 218 242
nan nan nan nan nan nan nan nan nan nan nan nan nan nan nan nan nan nan nan nan nan nan nan nan nan nan nan nan nan nan 24 36 35 35 37 35 33 33 35 34 34 38 41 47 47 56 63 71 71 78 78 83 84 84 87 85 85 84 82 88 88 93 95 100 100 104 106 109 113 113 116 124 131 131 138 148 164 164 171 176 176 178 177 191 191 207
nan nan nan nan nan nan nan nan nan nan nan nan nan nan nan nan nan nan nan nan nan nan nan nan nan nan nan nan 2 2 20 22 23 23 23 24 26 26 30 34 34 40 47 54 54 63 70 76 76 78 79 81 85 85 81 82 82 81 83 81 81 88 91 95 95 93 94 99 98 98 102 107 114 114 121 128 142 142 152 160 160 171 176 185 185 199
nan nan nan nan nan nan nan nan nan nan nan nan 6 6 11 9 2 2 nan nan nan nan nan nan nan nan nan nan nan nan nan nan nan nan nan nan 7 7 18 36 36 44 54 57 57 59 61 61 61 58 59 62 63 63 67 64 64 64 64 67 67 70 75 82 82 82 82 83 85 85 90 92 99 99 107 111 114 114 124 139 139 156 176 192 192 214
nan nan nan nan nan nan nan nan nan nan 1 5 15 15 7 1 nan nan nan nan nan nan nan nan nan nan nan nan nan nan nan nan nan nan nan nan nan nan 4 26 26 41 50 52 52 53 51 50 50 48 48 51 55 55 56 52 52 51 55 61 61 65 73 74 74 80 78 79 82 82 85 89 91 91 99 103 107 107 114 125 125 145 162 190 190 206
0 nan nan nan nan 1 nan nan nan nan 6 13 9 9 nan nan nan nan nan nan nan nan nan nan nan nan nan nan nan nan nan nan 8 8 19 7 27 27 18 18 18 16 38 42 42 42 41 39 39 39 40 43 46 46 46 41 41 42 46 53 53 63 70 76 76 77 76 80 81 81 89 90 97 97 102 107 116 116 121 130 130 140 166 186 186 208
1 0 0 nan nan nan 0 1 10 10 7 0 nan nan nan nan nan nan nan nan nan nan nan nan nan nan nan nan nan nan nan nan nan nan nan 1 14 14 20 19 19 22 26 28 28 25 25 27 27 31 33 35 36 36 34 31 31 35 42 51 51 65 70 72 72 74 78 83 88 88 93 98 105 105 110 118 125 125 130 133 133 145 163 186 186 206
3 0 0 nan nan 1 4 15 15 15 nan nan nan nan nan nan nan nan nan nan nan nan nan nan nan nan nan nan nan nan nan nan nan nan nan nan nan nan nan nan nan nan 1 6 6 10 16 20 20 23 21 20 29 29 29 26 26 36 42 52 52 62 66 70 70 74 79 84 90 90 97 106 110 110 120 119 125 125 126 130 130 137 156 174 174 194
7 4 3 3 3 8 11 8 0 0 nan nan nan nan nan nan nan nan nan nan nan nan nan nan nan nan nan nan nan nan nan nan nan nan nan nan nan nan nan nan nan nan nan nan nan nan 0 10 10 13 16 15 23 23 28 27 27 38 46 55 55 61 68 72 72 76 79 88 91 91 99 104 107 107 112 113 117 117 119 119 119 129 147 158 158 168
7 7 10 13 13 15 7 0 nan nan nan nan nan nan nan nan nan nan nan nan nan nan nan nan nan nan nan nan nan nan nan nan nan nan nan nan nan nan nan nan nan nan nan nan nan nan nan nan nan nan 5 7 11 11 15 27 27 42 52 59 59 66 73 77 77 78 79 84 87 87 92 96 100 100 103 107 110 110 113 121 121 123 131 139 139 151
9 14 21 18 18 8 1 nan nan nan nan nan nan nan nan nan nan nan nan nan nan nan nan nan nan nan nan nan nan nan nan nan nan nan nan nan nan nan nan nan nan nan nan nan nan nan nan nan nan nan nan nan nan nan 9 24 24 52 58 66 66 71 72 76 76 74 74 76 79 79 82 85 88 88 94 95 104 104 106 108 108 112 119 127 127 135
20 23 18 9 9 3 nan nan nan nan nan nan nan nan nan nan nan nan nan nan nan nan nan nan nan nan nan nan nan nan nan nan nan nan nan nan nan nan nan nan nan nan nan nan nan nan nan nan nan nan nan nan 15 15 31 38 38 57 63 68 68 72 71 71 71 70 69 70 74 74 74 76 81 81 82 89 94 94 94 101 101 106 109 119 119 122
27 21 13 5 5 0 0 nan 0 0 nan nan nan nan nan nan nan nan nan nan nan nan nan nan nan nan nan nan nan nan nan nan nan nan nan nan nan nan nan nan nan nan nan nan nan nan nan nan nan nan nan 3 22 22 32 45 45 53 62 64 64 62 66 66 66 68 65 68 69 69 70 70 69 69 73 77 82 82 87 92 92 97 102 108 108 113
31 17 7 2 2 0 0 0 0 0 nan nan nan nan nan nan nan nan nan nan nan nan nan nan nan nan nan nan nan nan nan nan nan nan nan nan nan nan nan nan nan nan nan nan nan nan nan nan nan nan nan 19 29 29 37 46 46 55 55 59 59 57 58 60 60 63 63 65 62 62 63 61 63 63 68 68 72 72 76 83 83 87 92 99 99 102
24 11 2 2 2 1 0 nan nan nan nan nan nan nan nan nan nan nan nan nan nan nan nan nan nan nan nan nan nan nan nan nan nan nan nan nan nan nan nan nan nan nan nan nan nan nan nan nan nan nan 10 25 32 32 39 43 43 50 52 53 53 50 53 53 53 57 59 55 56 56 54 55 54 54 56 60 64 64 68 72 72 74 80 83 83 93
15 1 nan 0 0 0 nan nan nan nan 0 0 0 0 nan nan nan nan nan nan nan nan nan nan nan nan nan nan nan nan nan nan nan nan nan nan nan nan nan nan nan nan nan nan nan nan nan nan nan nan 6 20 29 29 33 36 36 43 47 46 46 46 42 45 45 47 50 50 47 47 45 45 45 45 48 50 51 51 59 61 61 64 72 78 78 86
5 0 nan nan nan nan 0 nan nan nan 1 1 nan nan nan nan nan nan nan nan nan nan nan nan nan nan nan nan nan nan nan nan nan nan nan nan nan nan nan nan nan nan nan nan nan nan nan nan nan nan nan 15 25 25 29 34 34 39 39 38 38 37 38 36 36 39 41 40 41 41 40 40 42 42 43 45 46 46 47 51 51 58 64 76 76 86
0 0 nan nan nan 0 3 0 1 1 0 nan nan nan nan nan nan nan nan nan nan nan nan nan nan nan nan nan nan nan nan nan nan nan nan nan nan nan nan nan nan nan nan nan nan nan nan nan nan nan nan 16 23 23 29 31 31 33 34 33 33 34 34 35 35 34 36 37 39 39 39 40 40 40 41 42 41 41 44 45 45 53 61 65 65 77
nan 0 0 0 0 0 1 nan nan nan nan nan nan nan nan nan nan nan nan nan nan nan nan nan nan nan nan nan nan nan nan nan nan nan nan nan nan nan nan nan nan nan nan nan nan nan nan nan nan nan nan 18 19 19 24 24 24 28 29 30 30 32 33 33 33 33 36 35 37 37 37 36 36 36 38 37 36 36 36 40 40 46 50 53 53 67
0 1 0 nan nan nan nan nan nan nan nan nan nan nan nan nan nan nan nan nan nan nan nan nan nan nan nan nan nan nan nan nan nan nan nan nan nan nan nan nan nan nan nan nan nan nan nan nan nan nan nan 8 15 15 19 21 21 24 27 30 30 31 32 32 32 31 32 30 30 30 30 29 31 31 30 30 29 29 30 34 34 37 43 46 46 52
0 1 1 1 1 2 2 3 6 6 7 12 9 9 3 2 1 1 nan nan nan nan nan nan nan nan nan nan nan nan nan nan nan nan nan nan nan nan nan nan nan nan nan nan nan nan nan nan nan nan nan nan 7 7 13 18 18 22 26 27 27 27 27 26 26 26 26 25 25 25 23 25 26 26 27 28 28 28 29 31 31 33 36 39 39 44
11 10 11 16 16 41 59 74 86 86 91 62 29 29 6 nan nan nan nan nan nan nan nan nan nan nan nan nan nan nan nan nan nan nan nan nan nan nan nan nan nan nan nan nan nan nan nan nan nan nan nan nan 3 3 9 15 15 19 22 22 22 22 22 21 21 21 22 22 22 22 24 24 28 28 28 29 31 31 31 32 32 33 34 37 37 42
34 39 49 57 57 67 80 95 126 126 146 106 26 26 0 nan nan nan nan 0 0 0 nan nan nan nan nan nan nan nan nan nan nan nan nan nan nan nan nan nan nan nan nan nan nan nan nan nan nan nan nan nan nan nan 8 13 13 16 17 16 16 16 18 18 18 20 21 22 22 22 24 25 27 27 29 30 32 32 32 33 33 34 35 39 39 42
32 36 43 56 56 69 92 105 104 104 81 58 56 56 26 2 0 0 1 1 1 0 nan nan nan nan nan nan nan nan nan nan nan nan nan nan nan nan nan nan nan nan nan nan nan nan 2 nan nan nan nan nan nan nan nan 10 10 12 12 10 10 12 15 15 15 18 19 20 22 22 23 24 26 26 29 29 31 31 31 31 31 34 35 28 28 8
30 38 49 64 64 77 76 62 42 42 33 35 43 43 27 2 1 1 1 1 1 0 0 0 0 nan nan nan nan nan nan nan nan nan nan nan nan nan nan nan nan nan nan nan nan nan nan nan nan nan nan nan nan nan nan 4 4 7 8 10 10 12 12 12 12 15 17 18 20 20 24 25 27 27 27 28 29 29 28 28 28 32 25 13 13 2
14 38 50 51 51 44 24 4 13 13 25 30 36 36 24 2 0 0 1 0 0 nan nan nan nan nan nan nan nan nan nan nan nan nan nan nan nan nan nan nan nan nan nan nan nan nan nan nan nan nan nan nan nan nan nan nan nan nan nan 6 6 4 7 9 9 14 17 19 20 20 24 25 27 27 26 26 25 25 25 25 25 23 8 3 3 1
5 6 2 1 1 nan nan nan 2 2 19 27 29 29 17 2 0 0 nan nan nan nan nan nan nan nan nan nan nan nan nan nan nan nan nan nan nan nan nan nan nan nan nan nan nan nan nan nan nan nan nan nan nan nan nan nan nan nan nan nan nan nan 3 8 8 12 15 17 20 20 22 23 23 23 23 23 22 22 23 25 25 21 4 2 2 2
0 nan nan nan nan nan nan nan nan nan nan nan nan nan 3 4 2 2 nan nan nan nan nan nan nan nan nan nan nan nan nan nan nan nan nan nan nan nan nan nan nan nan nan nan nan nan nan nan nan nan nan nan nan nan nan nan nan nan nan nan nan nan nan 0 0 1 2 10 15 15 15 16 16 16 18 18 19 19 20 25 25 23 10 3 3 4
1 0 nan nan nan 0 nan nan nan nan nan nan nan nan nan 0 4 4 1 nan nan nan nan nan nan nan nan nan nan nan nan nan nan nan 2 nan nan nan nan nan nan nan nan nan nan nan nan nan nan nan nan nan nan nan nan nan nan nan nan nan nan nan nan nan nan nan nan 0 1 1 8 10 13 13 14 16 16 16 20 25 25 29 27 4 4 4
0 0 0 0 0 nan nan nan nan nan nan nan nan nan 0 nan nan nan 0 0 0 nan nan nan nan nan nan nan nan nan nan nan nan nan 1 nan nan nan nan nan nan nan nan nan nan nan nan nan nan nan nan nan nan nan nan nan nan nan nan nan nan nan nan nan nan nan nan nan nan nan nan nan 3 3 6 9 12 12 18 28 28 33 40 23 23 10
nan nan nan nan nan nan nan nan nan nan nan nan nan nan nan nan nan nan nan nan nan nan nan nan nan nan nan nan nan nan nan nan nan nan 3 nan nan nan nan nan nan nan nan nan nan nan nan nan nan nan nan nan nan nan nan nan nan nan nan nan nan nan nan nan nan nan nan nan nan nan nan nan nan nan nan 3 12 12 22 30 30 36 42 47 47 33
nan nan nan nan nan nan nan nan nan nan nan nan nan nan nan nan nan nan nan nan nan nan 0 nan nan nan nan nan nan nan nan nan nan nan 4 nan nan nan nan nan nan nan nan nan nan nan nan nan nan nan nan nan nan nan nan nan nan nan nan nan nan nan nan nan nan nan nan nan nan nan nan nan nan nan nan 7 18 18 26 31 31 33 39 44 44 47
nan nan nan nan nan nan nan nan nan nan nan nan nan nan nan nan nan nan nan nan nan nan nan 0 0 0 1 nan nan nan nan nan nan nan nan nan nan nan nan nan nan nan nan nan nan nan nan nan nan nan nan nan nan nan nan nan nan nan nan nan nan nan nan nan nan nan nan nan nan nan nan nan nan nan nan 7 12 12 19 27 27 28 36 40 40 44
nan nan nan nan nan nan nan nan nan nan nan nan nan nan nan nan nan nan nan nan nan nan nan nan nan nan 0 5 nan nan nan nan nan nan nan nan nan nan nan nan nan nan nan nan nan nan nan nan nan nan nan nan nan nan nan nan nan nan nan nan nan nan nan nan nan nan nan nan nan nan nan nan nan nan nan nan nan nan nan nan nan 9 27 29 29 40
nan nan nan nan nan nan nan nan nan nan nan nan nan nan nan nan nan nan nan nan nan nan nan nan nan nan nan nan nan nan 0 nan nan nan nan nan nan nan nan nan nan nan nan nan nan nan nan nan nan nan nan nan nan nan nan nan nan nan nan nan nan nan nan nan nan nan nan nan nan nan nan nan nan nan nan nan nan nan nan nan nan 0 1 nan nan 14
nan nan nan 1 1 nan nan nan nan nan nan nan 0 0 nan nan nan nan nan nan nan nan nan nan nan nan nan nan nan nan nan nan nan nan nan nan nan nan nan nan nan nan nan nan nan nan nan nan nan nan nan nan nan nan nan nan nan nan nan nan nan nan nan nan nan nan nan nan nan nan nan nan nan nan nan nan nan nan nan nan nan nan nan nan nan nan
1 nan nan nan nan nan nan nan nan nan nan nan nan nan nan nan nan nan nan nan nan nan nan nan nan nan nan nan nan nan nan nan nan nan nan nan nan nan nan nan nan nan nan nan nan nan nan nan nan nan nan nan nan nan nan nan nan nan 4 nan nan nan nan nan nan nan nan nan nan nan nan nan nan nan nan nan nan nan nan nan nan nan nan nan nan nan
4 0 nan nan nan nan nan nan nan nan nan nan nan nan nan nan nan nan nan nan nan nan nan nan nan nan nan nan nan nan nan nan nan nan nan nan nan nan nan nan nan nan nan nan nan nan nan nan nan nan nan nan nan nan nan nan nan nan nan nan nan nan nan nan nan nan nan nan nan nan nan nan nan nan nan nan nan nan nan nan nan 2 9 1 1 0
0 nan nan nan nan nan nan nan nan nan nan nan nan nan nan nan nan nan nan nan nan nan nan nan nan nan nan nan nan nan nan nan nan nan nan nan nan nan nan nan nan nan nan nan nan nan nan nan nan nan nan nan nan nan nan nan nan nan nan nan nan nan nan nan nan nan nan nan nan nan nan nan nan nan nan nan nan nan nan nan nan 15 15 1 1 0
nan nan nan nan nan nan nan nan nan nan nan nan nan nan nan nan nan nan nan nan nan nan nan nan nan nan nan nan nan nan nan nan nan nan nan nan nan nan nan nan nan nan nan nan nan nan nan nan nan nan nan nan nan nan nan nan nan nan nan nan nan nan nan nan nan nan nan nan nan nan nan nan nan nan nan nan nan nan nan nan nan nan 1 0 0 nan
nan nan nan nan nan nan nan nan nan nan nan nan nan nan nan nan nan nan nan nan nan nan nan nan nan nan nan nan nan nan nan nan nan nan nan nan 1 1 nan nan nan nan nan nan nan nan nan nan nan nan nan nan nan nan nan nan nan nan nan nan nan nan nan nan nan nan nan nan nan nan nan nan nan nan nan 0 nan nan nan nan nan nan nan nan nan nan
nan nan nan nan nan nan nan nan nan nan nan nan nan nan nan nan nan nan nan nan nan nan nan nan nan nan nan nan nan nan nan nan nan nan nan nan nan nan nan nan nan nan nan nan nan nan nan nan nan nan nan nan nan nan nan nan nan nan nan nan nan nan nan nan nan nan nan nan nan nan nan 0 1 1 1 0 nan nan nan nan nan nan nan nan nan nan
nan nan nan nan nan nan nan nan nan nan nan nan nan nan nan nan nan nan nan nan nan nan nan nan nan nan nan nan nan nan nan nan nan nan nan nan nan nan nan nan nan nan nan nan nan nan nan nan nan nan nan nan nan nan nan nan nan nan nan nan nan nan nan nan nan nan nan nan 0 0 0 nan nan nan nan nan nan nan nan nan nan nan nan nan nan nan
nan nan nan nan nan nan nan nan nan nan nan nan nan nan nan nan nan nan nan nan nan nan nan nan nan nan nan nan nan nan nan nan nan nan nan nan nan nan nan nan nan nan nan nan nan nan nan nan nan nan nan nan nan nan nan nan nan nan nan nan nan nan nan nan nan nan nan nan nan nan nan nan nan nan nan nan nan nan nan nan nan nan nan nan nan nan
nan nan nan nan nan nan nan nan nan nan nan nan nan nan nan nan 7 7 nan nan nan nan nan nan nan nan nan nan nan nan nan nan nan nan nan nan nan nan nan nan nan nan nan nan nan nan nan nan nan nan nan nan nan nan nan nan nan nan nan nan nan nan nan nan nan nan nan nan nan nan nan nan nan nan nan nan nan nan nan nan nan nan nan nan nan nan
nan nan nan nan nan nan nan nan nan nan nan nan nan nan nan nan nan nan nan nan nan nan nan nan nan nan nan nan nan nan nan nan nan nan nan nan nan nan nan nan nan nan nan nan nan nan nan nan nan nan nan nan nan nan nan nan nan nan nan nan nan nan nan nan nan nan nan nan nan nan nan nan nan nan nan nan nan nan nan nan nan nan nan nan nan nan
nan nan nan nan nan nan nan nan nan nan nan nan nan nan nan nan nan nan nan nan nan nan nan nan nan nan nan nan nan nan nan nan nan nan nan nan nan nan nan nan nan nan nan nan nan nan nan nan nan nan 1 15 3 3 nan nan nan nan nan nan nan nan nan nan nan nan nan nan nan nan nan nan nan nan nan nan nan nan nan nan nan nan nan nan nan nan